[[{"header":{"parameterUnit":"m.s-1","parameterCategory":1,"la1":30.2991,"la2":30.254,"lo1":-89.0895,"lo2":-89.0444,"dy":0.0017,"dx":0.0017,"nx":28,"ny":28,"refTime":"2025-04-21T21:00:00:Z","depth":0,"parameterNumber":2,"parameterNumberName":"U-component_of_WINDS"},"data":[0,0,0,0,0,0,0,0,0,0,0,0,0,0,0,0,0,0,0,0,0,0,0,0,0,0,0,0,0,0,0,0,0,0,0,0,0,0,0,0,0,0,0,0,0,0,0,0,0,0,0,0,0,0,0,0,0,0,-1.8139,-1.8141,0,-1.831,-1.8312,-1.8314,-1.8385,-1.8384,-1.8384,-1.8384,-1.8563,-1.8568,-1.8573,0,0,0,0,0,0,0,0,0,0,0,0,0,-1.7879,-1.7883,-1.8139,-1.8141,-1.8143,-1.8309,-1.8312,-1.8314,-1.8385,-1.8384,-1.8384,-1.8384,-1.8561,-1.8567,-1.8573,0,0,0,0,0,0,0,0,0,0,0,0,0,-1.8015,-1.7885,-1.8138,-1.8198,-1.8205,-1.8309,-1.8312,-1.8315,-1.8385,-1.8384,-1.8384,-1.8383,-1.8559,-1.8567,-1.8574,-1.8632,0,0,-1.8598,-1.8601,0,0,0,0,0,0,0,0,-1.8007,-1.8025,-1.8187,-1.8194,-1.8202,-1.8325,-1.8286,-1.8421,-1.8385,-1.8317,-1.8384,-1.8383,-1.8485,-1.8498,-1.8532,-1.8641,-1.8648,-1.8598,-1.8603,-1.8606,-1.8608,0,0,0,0,0,0,0,-1.7998,-1.8018,-1.8207,-1.819,-1.8199,-1.8218,-1.8237,-1.8312,-1.8402,-1.8323,-1.8328,-1.8347,-1.8489,-1.8524,-1.8536,-1.8651,-1.8598,-1.8605,-1.861,-1.8613,-1.8818,-1.8819,0,0,0,0,0,0,-1.7978,-1.8009,-1.8201,-1.8212,-1.8101,-1.8223,-1.8244,-1.8287,-1.8401,-1.8418,-1.8348,-1.835,-1.8511,-1.8527,-1.8543,-1.8619,-1.8606,-1.8613,-1.8618,-1.8817,-1.8818,-1.8819,0,0,0,0,0,0,-1.7972,-1.7994,-1.8194,-1.8112,-1.8139,-1.8229,-1.8275,-1.829,-1.8326,-1.842,-1.8437,-1.8367,-1.8512,-1.8532,-1.861,-1.8626,-1.8617,-1.8624,-1.8816,-1.8818,-1.8819,-1.8771,0,0,0,0,0,0,-1.7964,-1.7992,-1.8013,-1.8112,-1.8143,-1.8256,-1.8276,-1.8294,-1.8338,-1.8343,-1.8443,-1.8459,-1.8513,-1.8598,-1.8617,-1.8637,-1.863,-1.8815,-1.8817,-1.8818,-1.8772,-1.8771,-1.877,0,0,0,0,0,-1.7955,-1.7994,-1.8014,-1.8037,-1.8172,-1.8257,-1.8275,-1.8335,-1.8339,-1.8363,-1.8424,-1.8455,-1.8621,-1.8605,-1.8628,-1.865,-1.8814,-1.8816,-1.8818,-1.8772,-1.8771,-1.877,0,0,0,0,0,0,-1.7896,-1.8008,-1.8031,-1.8103,-1.817,-1.8269,-1.83,-1.8332,-1.84,-1.8402,-1.8475,-1.8497,-1.8568,-1.8617,-1.8597,-1.8713,-1.8721,-1.8727,-1.8678,-1.8678,-1.8677,-1.8663,-1.8636,0,0,0,0,0,-1.7891,-1.7949,-1.8045,-1.8099,-1.8131,-1.8209,-1.8249,-1.829,-1.8362,-1.8391,-1.8458,-1.8528,-1.8597,-1.864,-1.8708,-1.878,-1.8803,-1.8806,-1.8805,-1.8804,-1.8809,-1.8851,-1.8854,-1.8826,-1.8826,-1.8826,0,0,-1.7882,-1.795,-1.7983,-1.8089,-1.8145,-1.8206,-1.8233,-1.8295,-1.8341,-1.8401,-1.8478,-1.8529,-1.8613,-1.8688,-1.8724,-1.8731,-1.8822,-1.8806,-1.8805,-1.881,-1.8853,-1.8856,-1.8858,-1.8827,-1.8827,-1.8826,0,0,-1.7896,-1.7953,-1.8005,-1.8061,-1.8146,-1.8198,-1.821,-1.8305,-1.8341,-1.8419,-1.8466,-1.8523,-1.8638,-1.8696,-1.8741,-1.8779,-1.8811,-1.8799,-1.8794,-1.8835,-1.8837,-1.8839,-1.8853,-1.8857,-1.8803,-1.8803,-1.8803,0,-1.7875,-1.7966,-1.8028,-1.8088,-1.8134,-1.819,-1.8244,-1.8296,-1.8399,-1.8431,-1.8436,-1.8583,-1.8644,-1.8733,-1.8742,-1.8777,-1.8794,-1.8787,-1.8831,-1.8834,-1.8837,-1.8852,-1.8856,-1.8801,-1.8801,-1.8802,-1.8802,0,-1.7936,-1.7998,-1.803,-1.8127,-1.8177,-1.8233,-1.8306,-1.8349,-1.8386,-1.8438,-1.8518,-1.8592,-1.8677,-1.8701,-1.8738,-1.8797,-1.8798,-1.8817,-1.8826,-1.8837,-1.8851,-1.8857,-1.8798,-1.8799,-1.88,-1.88,0,0,-1.7917,-1.8047,-1.8058,-1.8103,-1.8201,-1.8252,-1.8312,-1.8393,-1.8429,-1.8499,-1.8552,-1.865,-1.8668,-1.8718,-1.8763,-1.8798,-1.8824,-1.8813,-1.8816,-1.8812,-1.8894,-1.8879,-1.8884,-1.8847,-1.8848,-1.8849,-1.8887,0,-1.7944,-1.8052,-1.811,-1.8195,-1.8254,-1.8309,-1.8362,-1.8429,-1.848,-1.8539,-1.8596,-1.8664,-1.8682,-1.8713,-1.8751,-1.8813,-1.8842,-1.8811,-1.8898,-1.89,-1.8874,-1.8892,-1.8877,-1.8909,-1.8893,-1.8894,-1.8895,0,-1.799,-1.8058,-1.8147,-1.8239,-1.8266,-1.8312,-1.8392,-1.8448,-1.8526,-1.856,-1.8617,-1.8661,-1.8729,-1.8733,-1.8828,-1.8806,-1.8846,-1.8882,-1.8885,-1.8895,-1.8898,-1.8903,-1.8921,-1.8925,-1.8905,-1.8904,-1.8903,0,-1.7967,-1.8081,-1.8149,-1.8186,-1.8295,-1.8326,-1.8374,-1.8451,-1.8497,-1.8567,-1.8598,-1.8676,-1.8719,-1.8779,-1.8844,-1.8841,-1.8933,-1.8943,-1.8964,-1.8963,-1.8981,-1.8979,-1.9005,-1.9006,-1.9006,-1.9006,-1.9006,0,-1.7992,-1.8044,-1.814,-1.8182,-1.8244,-1.8312,-1.8371,-1.8423,-1.8492,-1.8546,-1.86,-1.865,-1.8733,-1.8794,-1.8845,-1.8917,-1.8936,-1.8967,-1.898,-1.8962,-1.8958,-1.8988,-1.8987,-1.9008,-1.9007,-1.9007,-1.9007,0,-1.7976,-1.8043,-1.8121,-1.8218,-1.8243,-1.8284,-1.8368,-1.8412,-1.8466,-1.8534,-1.8555,-1.864,-1.8715,-1.8785,-1.8886,-1.8921,-1.8992,-1.9009,-1.8965,-1.8972,-1.899,-1.8987,-1.9037,-1.9047,-1.9041,-1.9041,-1.9041,0,-1.7987,-1.8029,-1.813,-1.8169,-1.8215,-1.8278,-1.8325,-1.8394,-1.8441,-1.8533,-1.8566,-1.8645,-1.8711,-1.8829,-1.8901,-1.8979,-1.8998,-1.901,-1.901,-1.8991,-1.8998,-1.8995,-1.9,-1.9008,-1.9008,-1.9008,-1.9008,0,-1.7999,-1.803,-1.8094,-1.817,-1.8223,-1.8287,-1.8352,-1.8382,-1.8465,-1.8515,-1.8591,-1.8643,-1.8745,-1.8823,-1.8909,-1.896,-1.8998,-1.9007,-1.9016,-1.8998,-1.8971,-1.8986,-1.8961,-1.9006,-1.9006,-1.9006,-1.9006,-1.9006,-1.7998,-1.8038,-1.8115,-1.8185,-1.8241,-1.8301,-1.8347,-1.8406,-1.8471,-1.8558,-1.8596,-1.8674,-1.8753,-1.8872,-1.8923,-1.8986,-1.8994,-1.9008,-1.9011,-1.9013,-1.9009,-1.8961,-1.9002,-1.9002,-1.9002,-1.9002,-1.9003,0,-1.8013,-1.8066,-1.8129,-1.8218,-1.8274,-1.8303,-1.8378,-1.8422,-1.8489,-1.8559,-1.8623,-1.8712,-1.8788,-1.8866,-1.8947,-1.8983,-1.9002,-1.9002,-1.9,-1.9011,-1.8997,-1.8981,-1.8984,-1.8984,-1.8984,-1.8984,-1.8984,-1.8984,-1.8028,-1.8096,-1.8136,-1.8235,-1.8288,-1.8362,-1.8402,-1.8459,-1.8515,-1.8611,-1.8674,-1.8723,-1.8797,-1.8884,-1.8956,-1.8977,-1.9005,-1.8999,-1.9025,-1.9011,-1.9012,-1.9013,-1.8998,-1.9005,-1.9005,-1.9034,-1.9034,-1.9034]},{"header":{"parameterUnit":"m.s-1","parameterCategory":1,"la1":30.2991,"la2":30.254,"lo1":-89.0895,"lo2":-89.0444,"dy":0.0017,"dx":0.0017,"nx":28,"ny":28,"refTime":"2025-04-21T21:00:00:Z","depth":0,"parameterNumber":3,"parameterNumberName":"V-component_of_WINDS"},"data":[0,0,0,0,0,0,0,0,0,0,0,0,0,0,0,0,0,0,0,0,0,0,0,0,0,0,0,0,0,0,0,0,0,0,0,0,0,0,0,0,0,0,0,0,0,0,0,0,0,0,0,0,0,0,0,0,0,0,3.4459,3.4459,0,3.4518,3.4519,3.4519,3.4504,3.4503,3.4502,3.4501,3.4557,3.456,3.4562,0,0,0,0,0,0,0,0,0,0,0,0,0,3.4329,3.4331,3.4458,3.4459,3.446,3.4518,3.4519,3.4519,3.4505,3.4503,3.4502,3.4501,3.4556,3.4559,3.4562,0,0,0,0,0,0,0,0,0,0,0,0,0,3.4386,3.4332,3.4458,3.446,3.446,3.4518,3.4519,3.452,3.4505,3.4503,3.4501,3.45,3.4555,3.4559,3.4563,3.4621,0,0,3.4574,3.4576,0,0,0,0,0,0,0,0,3.4383,3.4391,3.4459,3.446,3.4461,3.4502,3.4493,3.4553,3.4505,3.4488,3.4501,3.4499,3.454,3.4545,3.456,3.4623,3.4626,3.4575,3.4577,3.4579,3.458,0,0,0,0,0,0,0,3.4379,3.4388,3.4482,3.446,3.4461,3.4456,3.4462,3.4505,3.4523,3.4489,3.4488,3.4496,3.454,3.4556,3.4561,3.4627,3.4575,3.4578,3.458,3.4582,3.4742,3.4744,0,0,0,0,0,0,3.4375,3.4385,3.448,3.4484,3.4417,3.446,3.4467,3.449,3.4522,3.4525,3.4497,3.4495,3.455,3.4556,3.4563,3.4634,3.4579,3.4582,3.4585,3.474,3.4743,3.4745,0,0,0,0,0,0,3.4372,3.4383,3.4478,3.4434,3.4446,3.4464,3.449,3.4492,3.4508,3.4528,3.4531,3.4511,3.4549,3.4557,3.4607,3.4635,3.4584,3.4588,3.4738,3.4741,3.4744,3.4775,0,0,0,0,0,0,3.4368,3.4382,3.4405,3.4435,3.4448,3.4522,3.4492,3.4495,3.4516,3.4513,3.4541,3.4544,3.4548,3.4602,3.4611,3.464,3.4591,3.4736,3.474,3.4743,3.4772,3.4779,3.4785,0,0,0,0,0,3.4364,3.441,3.4407,3.4418,3.4478,3.4524,3.4531,3.4536,3.4518,3.4541,3.4554,3.4543,3.4631,3.4607,3.4617,3.4647,3.4734,3.4738,3.4743,3.4769,3.4778,3.4785,0,0,0,0,0,0,3.4381,3.4414,3.441,3.4468,3.4494,3.4521,3.455,3.4545,3.4575,3.4571,3.4575,3.4581,3.4632,3.4645,3.4617,3.4706,3.468,3.4686,3.4696,3.4704,3.4711,3.4706,3.4594,0,0,0,0,0,3.4393,3.4429,3.4455,3.4503,3.4517,3.4531,3.4551,3.4554,3.4579,3.4589,3.4606,3.463,3.4663,3.4684,3.4716,3.4774,3.478,3.48,3.4807,3.4812,3.4817,3.485,3.4859,3.4759,3.4759,3.4759,0,0,3.4415,3.4437,3.4459,3.4508,3.4527,3.4564,3.454,3.4579,3.4606,3.4595,3.4643,3.4657,3.4684,3.4738,3.4763,3.475,3.4847,3.4818,3.4822,3.4824,3.4856,3.4865,3.4873,3.4762,3.4762,3.4761,0,0,3.4474,3.4495,3.4539,3.456,3.4591,3.4601,3.4611,3.464,3.4649,3.4699,3.4691,3.4723,3.4779,3.4799,3.4817,3.4887,3.4878,3.4897,3.4931,3.4963,3.4971,3.4978,3.5003,3.5012,3.4902,3.4902,3.4902,0,3.4498,3.4554,3.4561,3.4602,3.4623,3.4617,3.4661,3.468,3.4719,3.4734,3.4719,3.4792,3.4809,3.4869,3.4887,3.4901,3.4913,3.4893,3.4969,3.4976,3.4983,3.5007,3.5016,3.4904,3.4904,3.4904,3.4904,0,3.4581,3.462,3.4651,3.4692,3.4717,3.4759,3.4771,3.4796,3.4796,3.4807,3.4858,3.488,3.4916,3.493,3.493,3.499,3.4982,3.4968,3.4942,3.4994,3.5017,3.5026,3.4907,3.4907,3.4906,3.4906,0,0,3.4652,3.4698,3.4709,3.4728,3.4763,3.4793,3.4835,3.4872,3.4893,3.4921,3.4955,3.5005,3.4993,3.5013,3.5015,3.5043,3.5098,3.5027,3.5027,3.5039,3.5166,3.5176,3.5187,3.5093,3.5095,3.5096,3.5164,0,3.4715,3.479,3.4799,3.4865,3.4902,3.4897,3.4934,3.4959,3.4971,3.5002,3.5015,3.505,3.5032,3.5044,3.5072,3.5086,3.5123,3.5081,3.5125,3.5126,3.5118,3.5198,3.5208,3.5271,3.5173,3.5174,3.5175,0,3.4798,3.483,3.4901,3.4933,3.4949,3.4981,3.5017,3.5048,3.5076,3.5083,3.5107,3.5106,3.5148,3.5121,3.5179,3.515,3.5169,3.5178,3.5181,3.5185,3.5154,3.5204,3.5291,3.5301,3.5189,3.5188,3.5187,0,3.4842,3.4904,3.4955,3.4971,3.5009,3.5033,3.5049,3.5076,3.5099,3.5129,3.5144,3.5179,3.5198,3.5224,3.5233,3.5212,3.5291,3.5264,3.5297,3.5297,3.5313,3.5312,3.5404,3.5326,3.5325,3.5325,3.5325,0,3.4911,3.4955,3.4976,3.5007,3.5056,3.5065,3.5113,3.5128,3.5153,3.5186,3.5184,3.5215,3.5224,3.5257,3.5264,3.5311,3.5319,3.5326,3.5327,3.5326,3.5325,3.5337,3.5333,3.5328,3.5327,3.5327,3.5326,0,3.4969,3.4985,3.504,3.5073,3.5082,3.5117,3.5144,3.5174,3.5186,3.5229,3.5239,3.5258,3.5297,3.5308,3.5354,3.5358,3.5414,3.5411,3.5405,3.5405,3.5438,3.5434,3.5541,3.5555,3.5467,3.5468,3.5469,0,3.5012,3.5046,3.5083,3.5107,3.5125,3.5162,3.5186,3.5197,3.5221,3.5257,3.5283,3.5321,3.5353,3.5415,3.5431,3.5467,3.5465,3.55,3.547,3.5468,3.5465,3.5463,3.5467,3.5505,3.5506,3.5507,3.5507,0,3.5087,3.5094,3.5129,3.5168,3.5197,3.5227,3.5256,3.5275,3.5289,3.5317,3.5358,3.5383,3.5431,3.5469,3.5505,3.5521,3.5517,3.5517,3.5526,3.5525,3.5521,3.5524,3.542,3.5514,3.5513,3.5513,3.5512,3.5512,3.5138,3.5169,3.5201,3.524,3.5264,3.5292,3.5322,3.5339,3.5374,3.5415,3.5419,3.5463,3.5491,3.554,3.5558,3.5592,3.5581,3.5595,3.5599,3.5602,3.5605,3.5516,3.5598,3.5598,3.5598,3.5598,3.5598,0,3.5213,3.5234,3.5271,3.5313,3.5344,3.534,3.5372,3.5398,3.5438,3.5465,3.5497,3.5544,3.5582,3.5603,3.564,3.5664,3.5663,3.5673,3.5671,3.5675,3.5612,3.56,3.5673,3.5673,3.5673,3.5673,3.5673,3.5673,3.5256,3.5308,3.5318,3.5382,3.5402,3.5446,3.5465,3.5491,3.5514,3.5567,3.5599,3.5613,3.5638,3.5678,3.5712,3.5717,3.5731,3.5743,3.5747,3.5687,3.5679,3.5672,3.5661,3.5746,3.5746,3.5807,3.5808,3.5808]}]]